This is the latest recevied weather packets stored in our database for station/object N4ZIQ. If no packets are shown the sender has not sent any weather packets the latest 10 day(s).
| Time | Temp. | Humidity | Pressure | Rain* | Wind** | Luminosity | Snow |
|---|---|---|---|---|---|---|---|
| 1777639849 | 24.44° C | 87% | 1012.8 hPa | 0 mm | - | 425 W/m² | - |
| 1777639571 | 23.89° C | 87% | 1012.9 hPa | 0 mm | - | 221 W/m² | - |
| 1777639247 | 23.89° C | 88% | 1012.8 hPa | 0 mm | - | 322 W/m² | - |
| 1777638947 | 23.89° C | 89% | 1012.7 hPa | 0 mm | - | 318 W/m² | - |
| 1777638656 | 23.89° C | 90% | 1012.8 hPa | 0 mm | - | 292 W/m² | - |
| 1777638345 | 23.33° C | 91% | 1012.7 hPa | 0 mm | - | 292 W/m² | - |
| 1777638047 | 23.33° C | 91% | 1012.6 hPa | 0 mm | - | 153 W/m² | - |
| 1777637761 | 23.33° C | 92% | 1012.5 hPa | 0 mm | - | 149 W/m² | - |
| 1777637447 | 22.78° C | 93% | 1012.3 hPa | 0 mm | - | 163 W/m² | - |
| 1777637146 | 22.78° C | 94% | 1012.3 hPa | 0 mm | - | 230 W/m² | - |
| 1777636869 | 22.22° C | 95% | 1012.2 hPa | 0 mm | - | 246 W/m² | - |
| 1777636544 | 21.67° C | 95% | 1012.3 hPa | 0 mm | - | 193 W/m² | - |
| 1777636245 | 21.67° C | 95% | 1012.2 hPa | 0 mm | - | 93 W/m² | - |
| 1777635964 | 21.11° C | 95% | 1012.3 hPa | 0 mm | - | 69 W/m² | - |
| 1777635646 | 20.56° C | 94% | 1012.3 hPa | 0 mm | - | 46 W/m² | - |
| 1777635348 | 20.56° C | 94% | 1012.1 hPa | 0 mm | - | 37 W/m² | - |
| 1777635063 | 20.56° C | 94% | 1011.9 hPa | 0 mm | - | 32 W/m² | - |
| 1777634749 | 20.56° C | 94% | 1011.9 hPa | 0 mm | - | 28 W/m² | - |
| 1777634450 | 20.56° C | 94% | 1011.9 hPa | 0 mm | - | 25 W/m² | - |
| 1777634160 | 20.56° C | 94% | 1011.9 hPa | 0 mm | - | 19 W/m² | - |
| 1777633847 | 20.56° C | 94% | 1012.1 hPa | 0 mm | - | 18 W/m² | - |
| 1777633545 | 20.56° C | 93% | 1012 hPa | 0 mm | - | 16 W/m² | - |
| 1777633259 | 20.56° C | 93% | 1012 hPa | 0 mm | - | 14 W/m² | - |
| 1777632945 | 21.11° C | 94% | 1012.1 hPa | 0 mm | - | 9 W/m² | - |
| 1777632645 | 21.11° C | 94% | 1012.2 hPa | 0 mm | - | 0 W/m² | - |
* Rain latest hour (hover to see other rain measurements)
** Current wind speed in m/s (hover to see current wind gust speed)